Regional Weather Roundup
Issued by NWS

Home | Current Version | Previous Version | Graphics & Text | Print | Product List | Glossary On
Versions: 1 2 3 4 5 6 7 8 9 10 11 12 13 14 15 16 17 18 19 20 21 22 23 24 25 26 27 28 29 30 31 32 33 34 35 36 37 38 39 40 41 42 43 44 45 46 47 48 49 50
139
ASUS43 KDMX 272106
RWRIA

WEATHER ROUNDUP FOR IOWA
NATIONAL WEATHER SERVICE DES MOINES IA
400 PM CDT THU JUL 27 2017

NOTE: "FAIR" INDICATES FEW OR NO CLOUDS BELOW 12,000 FEET WITH NO
SIGNIFICANT WEATHER AND/OR OBSTRUCTIONS TO VISIBILITY.

* - THESE STATIONS ARE NOT NWS STATIONS...THUS NOT UNDER NWS
QUALITY CONTROL.  THEY ALSO DO NOT REPORT WEATHER SUCH
AS PRECIPITATION OR FOG.

IAZ001>003-012>014-020>022-031>034-043>046-272200-
   NORTHWEST IOWA

CITY           SKY/WX    TMP DP  RH WIND       PRES   REMARKS
CARROLL *      SUNNY     82  64  54 NE10      30.03S HX  84
CHEROKEE *     MOSUNNY   81  59  46 N8        30.05F HX  81
DENISON *      MOSUNNY   81  63  54 VRB6G13   30.05F HX  82
ORANGE CITY *  MOSUNNY   82  61  47 NE7       30.07F HX  83
SHELDON *      MOSUNNY   81  63  54 N9        30.06F HX  82
SIOUX CITY     MOSUNNY   85  60  42 N8G16     30.04F HX  85
SPENCER        MOSUNNY   84  57  39 NE9G18    30.06F HX  83
STORM LAKE *   SUNNY     81  63  54 NE12      30.06F HX  82
$$

IAZ055>058-069>071-079>083-090>094-272200-
   SOUTHWEST IOWA

CITY           SKY/WX    TMP DP  RH WIND       PRES   REMARKS
ATLANTIC *     MOSUNNY   82  64  54 NE13      30.02F HX  84
AUDUBON *      MOSUNNY   82  64  54 NE10G20   30.04F HX  84
CLARINDA *     PTSUNNY   82  70  65 N12       30.02S HX  86
COUNCIL BLFS * MOSUNNY   81  64  57 N9        30.03F HX  82
CRESTON *      MOSUNNY   82  64  54 N14       30.01F HX  84
HARLAN  *      PTSUNNY   81  64  57 NE9G17    30.07S HX  82
LAMONI         MOSUNNY   89  68  49 NE9       29.97F HX  93
RED OAK *      MOSUNNY   82  64  54 NE12      30.01F HX  84
SHENANDOAH *   MOSUNNY   82  68  61 N7G13     30.01F HX  85
$$

IAZ047>049-059>061-072>074-084-272200-
   CENTRAL IOWA

CITY           SKY/WX    TMP DP  RH WIND       PRES   REMARKS
AMES           SUNNY     82  61  48 NE12G21   30.01S HX  83
ANKENY *       MOSUNNY   84  63  48 NE10G16   30.01S HX  85
BOONE *        MOSUNNY   82  61  47 NE9       30.02S HX  83
CHARITON *     PTSUNNY   84  68  58 NE14      29.98S HX  87
DES MOINES     MOSUNNY   85  62  46 N13       29.98F HX  85
GRINNELL*      SUNNY     82  64  54 NE15      30.01S HX  83
KNOXVILLE *    MOSUNNY   84  64  51 N8G15     29.97S HX  86
MARSHALLTOWN   MOSUNNY   83  62  49 NE9       30.00S HX  84
NEWTON *       SUNNY     84  63  48 N14       29.99F HX  85
PELLA *        MOSUNNY   86  64  47 NE8       29.99S HX  87
PERRY *          N/A     83  59  44 N10       30.02S HX  83
$$

IAZ004>006-015-016-023>025-035-036-272200-
   NORTH CENTRAL IOWA

CITY           SKY/WX    TMP DP  RH WIND       PRES   REMARKS
ALGONA *       MOSUNNY   81  63  54 N12       30.05F HX  82
ESTHERVILLE    MOSUNNY   81  62  52 N7        30.06F HX  82
FORT DODGE *   SUNNY     82  61  47 N9        30.04F HX  83
MASON CITY     MOSUNNY   83  63  50 NE9       30.05F HX  84
FOREST CITY *    N/A     82  61  47 NE9       30.05F HX  83
WEBSTER CITY * MOSUNNY   82  61  47 N9        30.01S HX  83
IOWA FALLS *     N/A     83  61  47 N9        30.04S HX  83
$$

IAZ007>011-017>019-026>030-037>042-050>054-066-272200-
   NORTHEAST IOWA

CITY           SKY/WX    TMP DP  RH WIND       PRES   REMARKS
CEDAR RAPIDS   MOSUNNY   82  66  57 NE13      29.97S HX  85
CHARLES CITY * MOSUNNY   82  64  54 NE10      30.03F HX  84
DECORAH *      MOSUNNY   81  61  50 VRB6      30.02S HX  81
DUBUQUE        MOSUNNY   82  63  52 NE13      29.99F HX  83
MONTICELLO *   PTSUNNY   82  66  57 NE5G14    29.98S HX  85
OELWEIN *      SUNNY     81  64  57 NE10G17   30.02F HX  82
WATERLOO       MOSUNNY   82  61  48 NE13      29.99F HX  83
$$

IAZ064-065-067-068-078-272200-
   EAST CENTRAL IOWA

CITY           SKY/WX    TMP DP  RH WIND       PRES   REMARKS
DAVENPORT      MOSUNNY   84  71  65 N10       29.97S HX  89
IOWA CITY      MOSUNNY   85  66  53 NE13      29.97F HX  87
MT. PLEASANT * SUNNY     84  69  59 N9        29.95S HX  88
MUSCATINE *    MOSUNNY   84  70  61 N12G17    29.94S HX  88
QUAD CITIES    PTSUNNY   83  69  62 NE10G20   29.93F HX  86
$$

IAZ062-063-075>077-085>089-095>099-272200-
   SOUTHEAST IOWA

CITY           SKY/WX    TMP DP  RH WIND       PRES   REMARKS
BURLINGTON     MOSUNNY   83  72  69 NE9       29.94S HX  88
FAIRFIELD *    MOSUNNY   86  68  54 NE13      29.95S HX  89
FORT MADISON * MOSUNNY   82  72  69 NE5       29.95S HX  87
KEOKUK *       MOSUNNY   82  72  69 N10       29.93F HX  87
OSKALOOSA *      N/A     86  67  53 NE12      29.97S HX  89
CENTERVILLE *    N/A     84  66  54 CALM      29.97F HX  86
OTTUMWA        PTSUNNY   87  66  49 N13       29.96R HX  89
WASHINGTON *   MOSUNNY   84  70  61 NE12      29.97S HX  88
$$

ABBREVIATIONS USED IN REMARKS
   TC - TEMPERATURES IN CELSIUS
  WCI - WIND CHILL INDEX
   HX - HEAT INDEX
  VSB - VISIBILITY
$$





USA.gov is the U.S. government's official web portal to all federal, state and local government web resources and services.